Marietta, GA

7:14 AM EDT on September 26, 2016 (GMT -0400)
Dobbins Air Force Base

Weather History for KMGE - July, 2014

Change the Weather History Date:

Wednesday, July 2, 2014

  Actual Average Record
Temperature  
Mean Temperature 82 °F -  
Max Temperature 92 °F 85 °F 96 °F (2016)
Min Temperature 72 °F 67 °F 59 °F (2008)
Cooling Degree Days 17    
Growing Degree Days 32 (Base 50)    
Moisture  
Dew Point 71 °F    
Average Humidity 70    
Maximum Humidity 96    
Minimum Humidity 43    
Precipitation  
Precipitation 0.00 in - - ()
Sea Level Pressure  
Sea Level Pressure 29.97 in    
Wind  
Wind Speed 7 mph (WNW)    
Max Wind Speed 10 mph    
Max Gust Speed -    
Visibility 9 miles    
Events      
Averages and records for this station are not official NWS values.
T = Trace of Precipitation, MM = Missing Value Source: NWS Daily Summary

Daily Weather History Graph

Daily Weather History Graph

Search for Another Location

Airport or City:

Trip Planner

Search our weather history database for the weather conditions in past years. The results will help you decide how hot, cold, wet, or windy it might be!

Date:

Astronomy

Jul. 02, 2014 Rise Set
Actual Time 6:31 AM EDT 8:53 PM EDT
Civil Twilight 6:02 AM EDT 9:22 PM EDT
Nautical Twilight 5:26 AM EDT 9:57 PM EDT
Astronomical Twilight 4:47 AM EDT 10:36 PM EDT
Moon 11:19 AM EDT (7/2) No Moon Set
Length of Visible Light 15h 19m
Length of Day
14h 21m
Waxing Crescent, 24% of the Moon is Illuminated
Jul 2
Waxing Crescent
Jul 5
First Quarter
Jul 12
Full
Jul 18
Last Quarter
Jul 26
New

Hourly Weather History & Observations

Time (EDT) Temp. Heat Index Dew Point Humidity Pressure Visibility Wind Dir Wind Speed Gust Speed Precip Events Conditions
12:58 AM 76.8 °F - 72.5 °F 86% 29.99 in 10.0 mi West 6.9 mph - N/A   Clear
1:58 AM 76.1 °F - 72.7 °F 89% 29.97 in 10.0 mi West 6.9 mph - N/A   Clear
2:58 AM 75.6 °F - 72.3 °F 90% 29.95 in 10.0 mi West 5.8 mph - N/A   Clear
3:58 AM 77.5 °F - 72.9 °F 85% 29.96 in 10.0 mi WNW 6.9 mph - N/A   Clear
4:58 AM 75.0 °F - 72.5 °F 92% 29.95 in 10.0 mi West 4.6 mph - N/A   Clear
5:58 AM 73.4 °F - 72.0 °F 95% 29.94 in 10.0 mi WSW 2.3 mph - N/A   Clear
6:58 AM 72.5 °F - 71.2 °F 96% 29.95 in 6.0 mi WSW 2.3 mph - N/A   Partly Cloudy
7:58 AM 75.6 °F - 73.2 °F 92% 29.97 in 6.0 mi West 5.8 mph - N/A   Partly Cloudy
8:58 AM 79.3 °F - 72.9 °F 80% 29.97 in 6.0 mi West 8.1 mph - N/A   Haze
9:58 AM 82.4 °F 88.4 °F 73.9 °F 75% 29.98 in 7.0 mi NW 10.4 mph - N/A   Scattered Clouds
10:58 AM 84.9 °F 91.4 °F 72.7 °F 67% 29.98 in 7.0 mi Variable 5.8 mph - N/A   Mostly Cloudy
11:58 AM 87.4 °F 92.3 °F 70.0 °F 56% 29.98 in 7.0 mi Variable 4.6 mph - N/A   Mostly Cloudy
12:58 PM 90.3 °F 94.7 °F 68.5 °F 49% 29.99 in 7.0 mi North 8.1 mph - N/A   Mostly Cloudy
1:58 PM 91.2 °F 94.6 °F 67.5 °F 45% 29.99 in 7.0 mi Variable 5.8 mph - N/A   Mostly Cloudy
2:58 PM 92.1 °F 95.3 °F 66.6 °F 43% 29.98 in 7.0 mi Variable 6.9 mph - N/A   Mostly Cloudy
3:58 PM 91.9 °F 95.4 °F 67.3 °F 44% 29.98 in 10.0 mi Variable 6.9 mph - N/A   Overcast
4:58 PM 90.3 °F 95.2 °F 69.4 °F 50% 29.97 in 10.0 mi West 10.4 mph - N/A   Overcast
5:58 PM 90.3 °F 96.7 °F 70.9 °F 53% 29.95 in 10.0 mi West 9.2 mph - N/A   Overcast
6:58 PM 89.4 °F 94.4 °F 69.8 °F 52% 29.95 in 10.0 mi WNW 10.4 mph - N/A   Overcast
7:58 PM 86.2 °F 92.6 °F 72.1 °F 63% 29.95 in 10.0 mi West 9.2 mph - N/A   Mostly Cloudy
8:58 PM 83.1 °F 88.1 °F 71.6 °F 68% 29.95 in 10.0 mi WNW 6.9 mph - N/A   Mostly Cloudy
9:58 PM 81.3 °F 85.2 °F 70.5 °F 70% 29.96 in 10.0 mi West 6.9 mph - N/A   Mostly Cloudy
10:58 PM 80.2 °F 83.5 °F 70.2 °F 71% 29.99 in 10.0 mi WNW 9.2 mph - N/A   Mostly Cloudy
11:58 PM 79.3 °F - 70.9 °F 75% 30.00 in 10.0 mi West 8.1 mph - N/A   Clear